GSTAR 2

导读

GSTAR 2(吉星Ⅱ)是美国通用电话电子设备公司的第四颗空间网通信卫星,由美国RCA空间电子部研制,于1986年3月28日搭载阿里安-3火箭,从法属圭亚那库鲁航天发射场发射升空,本次任务它与巴西卫星-2共同发射。该卫星属于Ku频段通信卫星,能够通过地面控制,为美国本土提供灵活便捷的通信覆盖服务,支撑国内通信网络覆盖,满足区域通信需求。

Basic Information
目录编号:
16649
目录名称:
GSTAR 2
国际标识:
1986-026A
轨道中心:
EARTH
卫星名称:
GSTAR 2
卫星全名:
--
卫星状态:
在轨 (已飞行14718 天)
发射日期:
1986-03-28 UTC
国别 :
美国 (US)
星等 :
--
Orbit Information
数据来源 国际轨道数据
星历时间: 2026-07-14T03:13:23+0800
12小时前
查看轨道信息
半长轴: 42297.455km
偏心率: 0.000268
轨道倾角: 14.185°
近地点辐角 51.566°
升交点赤经 345.655°
平近点角 314.683°
近地点: 35907.982km
远地点: 35930.654km
周期: 1442.883分钟
每日圈数: 0.998002
Detailed Information
使用方式:
暂无
2D Orbit Map
3D Orbit Map
Orbit Altitude Analysis Chart
Orbit Inclination Analysis Chart
Orbit Comprehensive Analysis Chart
View Comprehensive Chart